If you wish to contribute or participate in the discussions about articles you are invited to join SKYbrary as a registered user

 Actions

Comandante Gustavo Kraemer Airport

From SKYbrary Wiki

SBBG
Airport
ICAO: SBBG – IATA: BGX
Summary
Name Comandante Gustavo Kraemer Airport
Region South America and Caribbean
Territory Brazil BR.gif
Location Bage, Rio Grande do Sul
Serving Bage
Elevation 182.88 m
600 ft182.88 m
Coordinates 31° 23' 21.77" S, 54° 6' 38.95" W
Runways
Designator Length Width Surface ROPS
14/32 1149 m3,769.685 ft
45 m147.638 ft
GRS /
6/24 1500 m4,921.26 ft
30 m98.425 ft
CON /


METAR
Observation SBBG 140400Z AUTO 05015KT CAVOK 17/09 Q1016
Station Bage Aeroporto
Date/Time 14 December 2019 04:00:00
Wind direction 50°
Wind speed 15 kts
Lowest cloud amount clouds and visibility OK
Temperature 17°C
Dew point 9°C
Humidity 59%
QNH 1016 hPa
Weather condition n/a

Comandante Gustavo Kraemer International Airport is the airport serving Bagé, Brazil.

Climatology

Humid subtropical climate (Köppen climate classification Cfa)

Maps

Terrain

Loading map...

Airport Layout

Loading map...


Accidents & Serious Incidents at or in vicinity of SBBG

None on SKYbrary